CZ-2D DEB, 38299

Orbit data source: Space-Track

CZ-2D DEB, 38299 is space debris in SSO originally from a launch on Tue, 15 Jun 2010 UTC launched from the Jiuquan Satellite Launch Center, China (JSC). Debris objects in space refer to the collection of defunct objects orbiting the Earth. Examples of debris include non-operational satellites, rocket bodies, and fragments generated from explosions, collisions, or faulty payload assembly.

Loading next visibility...
Identifier
38299, 2010-027D
Orbit
SSO
Country
Flag of CNCN / PRC
Related business
Manufacturer
Unknown
Mission
Spacecraft
Bus & Motor
Unknown
Mass
Unknown
Launch date (UTC)
2010-06-15 (16 years ago)
Launch vehicle
Unknown
Launch site
Jiuquan Satellite Launch Center, China (JSC)
Object type
Payload
Rocket body
Debris
Shape & HBR
Unknown shape, 0.1 m
Radar Cross Section
Small (<0.1 m²)

Expand to show TLE details & history
Last TLE update: 13 hours ago

TLE from 13 hours ago
0 CZ-2D DEB
1 38299U 10027D   26126.09286647  .00047490  00000-0  15917-2 0  9999
2 38299  97.6544 351.9817 0059485 133.4756 227.1453 15.29037191844617
Epoch: 2026-05-06T02:13Z
TLE epoch observation values (Epoch: 2026-05-06T02:13:43.663Z)
Latitude
0.00008°
Longitude
94.59145°
Altitude
509.662 km
Speed
7.594 km/s
True Right ascension
23h 27m 55s
True Declination
0° 00' 00"
Sunlit
Object was in daylight at epoch
Visualization orbit readout
Latitude
Unknown
Longitude
Unknown
Altitude
Unknown
Speed
Unknown
Apparent Right ascension
Unknown
Apparent Declination
Unknown
Sunlit
N/A
Visualization observer readout
Local Sidereal Time
23:37:25
Azimuth
Unknown
Elevation
Unknown
Doppler factor
Unknown
Orbital elements
Apogee altitude
516.423 km
Perigee altitude
434.884 km
Semi-major axis
6,853.791 km
Eccentricity
0.00595
Inclination
97.6544°
RAAN
351.9817°
Arg. of periapsis
133.4756°
True anomaly
226.64812°
Mean anomaly
227.1453°
Eccentric anomaly
226.89646°
Mean motion
3.82514 °/min
Orbital period
94.11 mins
BSTAR
0.0015917
Loading maneuver chart data...
Computing Atmospheric mass density...
Loading historical data...
Loading historical data...
Loading historical data...
Loading historical data...
Loading historical data...
Loading historical data...
Loading historical data...

Documentation

Showing up to 5 results
|